Regional Weather Roundup
Issued by NWS

Home | Current Version | Previous Version | Graphics & Text | Print | Product List | Glossary On
Versions: 1 2 3 4 5 6 7 8 9 10 11 12 13 14 15 16 17 18 19 20 21 22 23 24 25 26 27
000
ASUS45 KPSR 221710
RWRAZ

ARIZONA HOURLY REGIONAL WEATHER ROUNDUP
NATIONAL WEATHER SERVICE PHOENIX AZ
1000 AM MST SUN OCT 22 2017

NOTE: FAIR INDICATES FEW OR NO CLOUDS BELOW 12,000 FEET WITH NO
SIGNIFICANT WEATHER AND/OR OBSTRUCTIONS TO VISIBILITY.

AZZ001>003-036-221800-
NORTHWEST ARIZONA

CITY           SKY/WX    TMP DP  RH WIND       PRES   REMARKS
BULLHEAD CITY  SUNNY     75  18  11 N22G29    30.22F
KINGMAN        SUNNY     65  15  14 N8        30.35S
$$

AZZ004>008-015-016-018-221800-
NORTH CENTRAL ARIZONA

CITY           SKY/WX    TMP DP  RH WIND       PRES   REMARKS
GRAND CANYON   SUNNY     60  17  18 NE3       30.49R
WILLIAMS       SUNNY     63  18  17 CALM      30.47R
PRESCOTT       SUNNY     60   9  13 NE5       30.41S
FLAGSTAFF      SUNNY     56  10  16 E8        30.50R
PAYSON         SUNNY     64   7  10 CALM      30.42S
PAGE           SUNNY     58  16  19 VRB3      30.43S
$$

AZZ009>014-017-221800-
NORTHEAST ARIZONA

CITY           SKY/WX    TMP DP  RH WIND       PRES   REMARKS
WINSLOW        SUNNY     55   7  14 CALM      30.47S
SAINT JOHNS    SUNNY     53  11  18 CALM      30.44S
WINDOW ROCK    SUNNY     53   8  16 S3        30.47S
SHOW LOW       SUNNY     55   9  15 CALM      30.47F
$$

AZZ540-542>544-546-548-221800-
GREATER PHOENIX AREA

CITY           SKY/WX    TMP DP  RH WIND       PRES   REMARKS
PHOENIX        SUNNY     76  30  18 VRB3      30.19S
BUCKEYE        SUNNY     75  59  57 W5        30.20S
GLENDALE       SUNNY     77  25  14 CALM      30.21S
LUKE AFB       SUNNY     76  23  14 CALM      30.19S
DEER VALLEY    SUNNY     79  14   8 CALM      30.20S
SCOTTSDALE     SUNNY     76  26  15 W3        30.22S
MESA-FALCON    SUNNY     77  21  12 N12       30.21R
MESA-GATEWAY   SUNNY     73  36  25 SW5       30.21S
$$

AZZ539-553-221800-
SOUTHWEST MARICOPA COUNTY AND PINAL COUNTY

CITY           SKY/WX    TMP DP  RH WIND       PRES   REMARKS
CASA GRANDE    NOT AVBL
$$

AZZ503-504-507>509-221800-
SOUTHEAST ARIZONA

CITY           SKY/WX    TMP DP  RH WIND       PRES   REMARKS
TUCSON         SUNNY     73  37  27 VRB3      30.25S
DAVIS-MONTHAN  SUNNY     73  37  27 VRB1      30.23S
NOGALES        SUNNY     72  34  24 W3        30.28S
SIERRA VISTA   SUNNY     73  27  18 E7        30.34S
DOUGLAS        SUNNY     70  29  21 CALM      30.32S
SAFFORD        SUNNY     72  14  11 SE10      30.31S
$$

AZZ532-221800-
SOUTHWEST ARIZONA

CITY           SKY/WX    TMP DP  RH WIND       PRES   REMARKS
YUMA           SUNNY     77  24  14 NE10      30.16S
$$

CAZ041-043-047-048-061-525>527-560>570-221800-
SOUTHERN CALIFORNIA

CITY           SKY/WX    TMP DP  RH WIND       PRES   REMARKS
DOWNTOWN L.A.  SUNNY     81  30  15 VRB3      30.12R
L.A. AIRPORT   MOSUNNY   82  31  15 VRB5      30.13R
SAN DIEGO      MOSUNNY   74  41  30 NW5       30.12R
BURBANK        SUNNY     75  28  17 CALM      30.15R
ONTARIO        SUNNY     74  33  22 W5        30.16R
RIVERSIDE      SUNNY     81  29  15 E7        30.15S
PALM SPRINGS   SUNNY     82  33  17 CALM      30.19R
EL CENTRO NAS  SUNNY     77  26  15 W5        30.18R
IMPERIAL       SUNNY     75  35  23 W3        30.16R
BLYTHE         SUNNY     72  24  16 CALM      30.21R
NEEDLES        SUNNY     76  19  11 N13       30.24S
$$

NVZ020-UTZ003-221800-
SOUTHERN NEVADA-UTAH

CITY           SKY/WX    TMP DP  RH WIND       PRES   REMARKS
LAS VEGAS      SUNNY     68  22  17 CALM      30.33F
SALT LAKE CITY PTSUNNY   57  21  24 SE13      30.37S
$$

NMZ009-TXZ055-221800-
NEW MEXICO-WEST TEXAS

CITY           SKY/WX    TMP DP  RH WIND       PRES   REMARKS
ALBUQUERQUE    MOSUNNY   54   5  14 W3        30.43S
EL PASO        SUNNY     67  13  12 N14       30.35S
$$


........................KEY........................
SKY/WX - SKY CONDITION/WEATHER
TMP    - TEMPERATURE IN FAHRENHEIT
DP     - DEW POINT IN FAHRENHEIT
RH     - RELATIVE HUMIDITY IN PERCENT
WIND   - DIRECTION AND SPEED IN MILES PER HOUR (MPH)
VRB    - VARIABLE WIND DIRECTION
PRES   - MEAN SEA LEVEL PRESSURE IN INCHES OF MERCURY
         F - FALLING PRESSURE   R - RISING PRESSURE
         S - STEADY PRESSURE
VSB    - VISIBILITY IN MILES
HX     - HEAT INDEX IN FAHRENHEIT
WCI    - WIND CHILL INDEX IN FAHRENHEIT
TC     - TEMPERATURE IN CELSIUS WHICH IS ALSO KNOWN AS
         TEMPERATURE IN CENTIGRADE
AFB    - AIR FORCE BASE
         LUKE AFB IS LUKE AIR FORCE BASE
         DAVIS-MONTHAN IS DAVIS-MONTHAN AIR FORCE BASE
NAS    - NAVAL AIR STATION
         EL CENTRO NAS IS EL CENTRO NAVAL AIR STATION
N/A    - NOT AVAILABLE





USA.gov is the U.S. government's official web portal to all federal, state and local government web resources and services.